Glennallen, AK

1:25 PM AKST on February 26, 2017 (GMT -0900)
Gulkana

Weather History for PAGK - September, 2013

Change the Weather History Date:

Tuesday, September 3, 2013

  Actual Average Record
Temperature  
Mean Temperature 56 °F -  
Max Temperature 64 °F 58 °F 73 °F (1974)
Min Temperature 50 °F 35 °F 26 °F (1968)
Degree Days  
Heating Degree Days 8    
Growing Degree Days 6 (Base 50)    
Moisture  
Dew Point 44 °F    
Average Humidity 66    
Maximum Humidity 86    
Minimum Humidity 33    
Precipitation  
Precipitation 0.00 in - - ()
Sea Level Pressure  
Sea Level Pressure 29.50 in    
Wind  
Wind Speed 19 mph (SSE)    
Max Wind Speed 30 mph    
Max Gust Speed 44 mph    
Visibility 10 miles    
Events Rain    
Averages and records for this station are not official NWS values.
T = Trace of Precipitation, MM = Missing Value Source: NWS Daily Summary

Daily Weather History Graph

Daily Weather History Graph

Search for Another Location

Airport or City:

Trip Planner

Search our weather history database for the weather conditions in past years. The results will help you decide how hot, cold, wet, or windy it might be!

Date:

Astronomy

Sep. 03, 2013 Rise Set
Actual Time 6:37 AM AKDT 8:43 PM AKDT
Civil Twilight 5:49 AM AKDT 9:30 PM AKDT
Nautical Twilight 4:45 AM AKDT 10:33 PM AKDT
Astronomical Twilight 3:17 AM AKDT 11:58 PM AKDT
Moon 4:46 AM AKDT (9/3) 7:37 PM AKDT (9/3)
Length of Visible Light 15h 41m
Length of Day
14h 05m
Waning Crescent, 3% of the Moon is Illuminated
Sep 3
Waning Crescent
Sep 5
New
Sep 12
First Quarter
Sep 19
Full
Sep 26
Last Quarter

Hourly Weather History & Observations

Time (AKDT) Temp. Dew Point Humidity Pressure Visibility Wind Dir Wind Speed Gust Speed Precip Events Conditions
12:53 AM 53.1 °F 45.0 °F 74% 29.66 in 10.0 mi SSE 25.3 mph 32.2 mph N/A   Overcast
1:53 AM 52.0 °F 46.0 °F 80% 29.64 in 10.0 mi SSE 16.1 mph 31.1 mph N/A   Scattered Clouds
2:53 AM 52.0 °F 45.0 °F 77% 29.65 in 10.0 mi SSE 19.6 mph 23.0 mph N/A   Overcast
3:53 AM 50.0 °F 46.0 °F 86% 29.62 in 10.0 mi SSE 19.6 mph - N/A   Partly Cloudy
4:53 AM 51.1 °F 45.0 °F 80% 29.59 in 10.0 mi South 10.4 mph 19.6 mph N/A   Partly Cloudy
5:53 AM 52.0 °F 44.1 °F 74% 29.58 in 10.0 mi South 15.0 mph 23.0 mph N/A   Mostly Cloudy
6:53 AM 51.1 °F 44.1 °F 77% 29.57 in 10.0 mi South 10.4 mph - 0.00 in Rain Light Rain
7:53 AM 51.1 °F 44.1 °F 77% 29.55 in 10.0 mi SSE 3.5 mph - 0.00 in   Overcast
8:53 AM 52.0 °F 44.1 °F 74% 29.53 in 10.0 mi SSE 15.0 mph 23.0 mph N/A   Overcast
9:53 AM 52.0 °F 44.1 °F 74% 29.50 in 10.0 mi SSE 20.7 mph 27.6 mph N/A   Mostly Cloudy
10:53 AM 57.0 °F 44.1 °F 62% 29.47 in 10.0 mi SSE 25.3 mph 33.4 mph N/A   Partly Cloudy
11:53 AM 57.9 °F 42.1 °F 56% 29.47 in 10.0 mi SSE 25.3 mph 35.7 mph N/A   Overcast
12:53 PM 61.0 °F 42.1 °F 50% 29.44 in 10.0 mi SSE 16.1 mph 25.3 mph N/A   Overcast
1:53 PM 63.0 °F 42.1 °F 46% 29.43 in 10.0 mi South 24.2 mph 35.7 mph N/A   Scattered Clouds
2:53 PM 64.0 °F 42.1 °F 45% 29.41 in 10.0 mi SSE 26.5 mph 36.8 mph N/A   Clear
3:53 PM 63.0 °F 41.0 °F 45% 29.41 in 10.0 mi SE 29.9 mph 42.6 mph N/A   Partly Cloudy
4:53 PM 61.0 °F 42.1 °F 50% 29.41 in 10.0 mi SSE 26.5 mph 43.7 mph N/A   Mostly Cloudy
5:53 PM 59.0 °F 42.1 °F 53% 29.40 in 10.0 mi SSE 19.6 mph 39.1 mph N/A   Overcast
6:53 PM 57.0 °F 43.0 °F 59% 29.42 in 10.0 mi SSE 25.3 mph 40.3 mph 0.00 in   Overcast
7:53 PM 54.0 °F 45.0 °F 72% 29.41 in 10.0 mi SSE 19.6 mph 32.2 mph 0.00 in Rain Light Rain
8:53 PM 54.0 °F 45.0 °F 72% 29.44 in 10.0 mi SSE 18.4 mph 33.4 mph 0.00 in   Partly Cloudy
9:53 PM 54.0 °F 45.0 °F 72% 29.46 in 10.0 mi South 10.4 mph 21.9 mph N/A   Mostly Cloudy
10:53 PM 53.1 °F 45.0 °F 74% 29.47 in 10.0 mi South 16.1 mph 24.2 mph N/A   Scattered Clouds
11:53 PM 52.0 °F 46.0 °F 80% 29.49 in 10.0 mi South 9.2 mph - N/A   Mostly Cloudy